Regional Weather Roundup
Issued by NWS

Home | Current Version | Previous Version | Graphics & Text | Print | Product List | Glossary On
Versions: 1 2 3 4 5 6 7 8 9 10 11 12 13 14 15 16 17 18 19 20 21 22 23 24 25 26 27 28 29 30 31 32 33 34 35 36 37 38 39 40 41 42 43 44 45 46 47 48 49 50
000
ASUS43 KDTX 252010
RWRMI
MICHIGAN HOURLY REGIONAL WEATHER ROUNDUP
NATIONAL WEATHER SERVICE DETROIT/PONTIAC MI
300 PM EST SUN JAN 25 2015

NOTE: "FAIR" INDICATES FEW OR NO CLOUDS BELOW 12,000 FEET WITH NO
SIGNIFICANT WEATHER AND/OR OBSTRUCTION TO VISIBILITY.

MIZ047>049-052>055-059>063-066>070-074>076-081>083-252100-
SOUTHEAST LOWER MICHIGAN

CITY           SKY/WX    TMP DP  RH WIND       PRES   REMARKS
ADRIAN         CLOUDY    24  19  81 E15G22    29.85R HAZE    WCI  11
ALMA           MOSUNNY   20  12  69 NE15      29.94S WCI   7
ANN ARBOR      CLOUDY    25  15  66 NE14G21   29.87R WCI  13
BAD AXE        PTSUNNY   19  11  71 NE12G17   29.98R WCI   6
CARO           MOSUNNY   23  11  61 CALM      29.94S
DETROIT CITY   PTSUNNY   24  13  62 E14       29.90S WCI  12
DETROIT        CLOUDY    24  15  68 NE15      29.89R WCI  11
FLINT          MOSUNNY   25  12  58 NE16      29.91S WCI  12
GROSSE ILE     CLOUDY    21  16  79 NE13G20   29.88R WCI   9
HILLSDALE      LGT SNOW  25  19  76 E17       29.80R WCI  12
HOWELL         CLOUDY    24  13  62 NE13      29.87R WCI  12

CITY           SKY/WX    TMP DP  RH WIND       PRES   REMARKS
JACKSON        CLOUDY    24  14  65 NE9G17    29.85R WCI  14
LAMBERTVILLE   CLOUDY    27  18  69 NE13G18   29.86R WCI  16
LANSING        CLOUDY    23  13  65 NE16      29.89S WCI  10
LAPEER         FAIR      21  10  63 NE9       29.92S WCI  10
MASON          CLOUDY    23  13  65 NE16G22   29.88R WCI  10
MONROE         CLOUDY    25  16  68 NE13G20   29.86R WCI  13
MT. CLEMENS    PTSUNNY   24  10  56 NE15      29.89S WCI  11
PONTIAC        PTSUNNY   24  13  62 NE14      29.87S WCI  12
PORT HOPE        N/A     20   9  62 NE13      29.99R WCI   7
PORT HURON     MOSUNNY   19  10  68 NE16G22   29.94R WCI   5
TRI CITIES     PTSUNNY   23  13  65 NE21G26   29.96S WCI   8
TROY           PTSUNNY   27  13  56 NE16      29.91R WCI  14
SAGINAW HB     PTSUNNY   23  14  68 NE16      29.95S WCI  10
$$
MIZ043>046-050>051-056>058-064>065-071>073-077>080-252100-
SOUTHWEST LOWER MICHIGAN

CITY           SKY/WX    TMP DP  RH WIND       PRES   REMARKS
BATTLE CREEK   CLOUDY    26  13  57 NE16      29.84R WCI  14
BENTON HARBOR  CLOUDY    26  19  74 E12G23    29.83R WCI  16
BIG RAPIDS     SUNNY     22   7  52 NE9       29.93S WCI  11
COLDWATER      CLOUDY    26  19  74 E10G20    29.81S WCI  15
FREMONT        FAIR      23   4  44 NE13      29.92S WCI  11
HOLLAND        CLOUDY    25  12  58 NE17G23   29.88S WCI  12
GRAND RAPIDS   PTSUNNY   22  12  65 NE16      29.89S WCI   8
IONIA          FAIR      22  14  71 NE15G21   29.89S WCI   9
KALAMAZOO      CLOUDY    26  13  57 NE14G20   29.84R WCI  14
LUDINGTON      MOSUNNY   26   1  35 E12       29.96S WCI  15
MARSHALL       CLOUDY    24  15  68 NE7       29.84R WCI  16
MOUNT PLEASANT SUNNY     23  10  58 NE12G18   29.95S WCI  11
MUSKEGON       MOSUNNY   25   8  48 NE14      29.92R WCI  13
SOUTH HAVEN    CLOUDY    27  16  62 NE14G21   29.85R WCI  16
$$
MIZ016>042-252100-
NORTHERN LOWER MICHIGAN

CITY           SKY/WX    TMP DP  RH WIND       PRES   REMARKS
ALPENA         MOSUNNY   16   4  59 NE6       30.04S WCI   7
BEAVER ISLAND  SUNNY     12  -5  46 NE8       30.06F WCI   1
BELLAIRE       SUNNY     20   3  47 CALM      30.02F
CADILLAC       MOSUNNY   17   2  51 NE9       29.93S WCI   6
CHARLEVOIX     SUNNY     15   7  72 N8        30.07S WCI   4
FRANKFORT      MOSUNNY   21   1  42 NE7       30.01S WCI  12
GAYLORD        SUNNY     16   1  51 NE5       29.96S WCI   9
GRAYLING       MOSUNNY   16   0  50 NE7       29.98S WCI   6
HARBOR SPRINGS SUNNY     16   2  53 NE5       30.03F WCI   9
HOUGHTON LAKE  PTSUNNY   19   3  49 NE8       29.96S WCI   9
MANISTEE       MOSUNNY   19   3  49 NE12G20   29.99S WCI   7
OSCODA         FLURRIES  18  10  69 N9        30.02R WCI   7
PELLSTON       SUNNY     17   3  54 NE7       30.05F WCI   8
ROGERS CITY    SUNNY     15   6  69 E8        30.07S WCI   3
TRAVERSE CITY  PTSUNNY   18   6  59 NE8       30.02S WCI   8
$$
MIZ007>008-015-252100-
EASTERN UPPER MICHIGAN

CITY           SKY/WX    TMP DP  RH WIND       PRES   REMARKS
KINROSS        SUNNY     19   0  42 CALM      30.07R
MACKINAC ISLAN SUNNY     13   1  57 N7        30.06F WCI   3
NEWBERRY       SUNNY     12  -2  52 N3        30.04F
S. S. MARIE    SUNNY     10  -5  50 W7        30.07R WCI  -1
MUNISING         N/A     19  10  68 NE9       30.07F WCI   8
$$
MIZ004>006-011>014-085-252100-
CENTRAL UPPER MICHIGAN

CITY           SKY/WX    TMP DP  RH WIND       PRES   REMARKS
MANISTIQUE     SUNNY     17   5  57 NE5       30.06S WCI  10
ESCANABA       SUNNY     19   9  63 E8        30.05S WCI   9
MENOMINEE      SUNNY     19   7  58 E12       30.05S WCI   7
SAWYER-GWINN   MOSUNNY   16   5  62 NE5       30.02F WCI   9
$$
MIZ001>003-009>011-084-252100-
WESTERN UPPER MICHIGAN

CITY           SKY/WX    TMP DP  RH WIND       PRES   REMARKS
IRON MOUNTAIN  PTSUNNY   19   7  59 NW3       30.01F
HOUGHTON       MOSUNNY   16   4  59 CALM      30.05S
COPPER HARBOR    N/A     16   5  62 SE5       30.09F WCI   9
IRONWOOD       CLOUDY    18   5  57 E6        30.00F WCI   9
$$

ABBREVIATIONS USED IN REMARKS
   TC - TEMPERATURE IN CELSIUS
  WCI - WIND CHILL INDEX
   HX - HEAT INDEX
  VSB - VISIBILITY



USA.gov is the U.S. government's official web portal to all federal, state and local government web resources and services.